Location: Cassagne
(43.1218°N, 0.9901°E)
Time: 20:02:31
(UTC+00:00)

STARLINK-1125 - Pass Details

Date: 17 February 2020
Orbit: 539 x 541 km, 53.0° (Epoch: 30 March)

Event Time Altitude Azimuth Distance (km) Brightness Sun altitude
Exits shadow 05:17:37 40° 246° (WSW) 779 3.9 -17.8°
Maximum altitude 05:18:58 78° 326° (NW) 536 3.4 -17.6°
Drops below altitude 10° 05:22:56 10° 52° (NE) 1,751 6.9 -16.8°
Sets 05:25:08 0° 54° (NE) 2,638 8.0 -16.4°
